Wind_Speed
10 10 10 9 9 9 9 9 9 10 10 10 10 10 10 10 10 10 9 9 9 9 10 10 10 10 11 11 12 13 13 14 15 13 14 13 9 4 4 6 10 13 12 13 12 11 12 12 12 11 10 8 7 8 8 8 7 6 6 8 7 8 9 6 6 3 4 3 3 5 5 4 6 3 3 4 10 13 9 10 8 5 4 8 16 23 24 22
10 10 10 9 9 9 9 9 9 10 10 10 10 10 10 10 10 10 10 10 10 10 10 10 10 10 11 11 12 12 14 16 16 16 15 14 13 9 9 7 10 14 14 14 13 13 12 10 12 11 9 7 7 7 6 7 8 7 7 7 8 9 6 2 4 6 6 7 5 4 4 4 5 4 3 6 10 13 13 10 9 8 8 10 16 21 22 22
11 10 10 9 9 9 10 9 10 10 10 11 10 10 10 10 10 10 10 10 10 10 10 10 10 11 11 11 11 10 13 16 15 12 9 11 13 12 10 9 12 16 16 14 12 13 11 9 11 10 9 8 7 7 6 7 7 8 8 7 8 9 6 2 3 6 6 7 7 4 5 5 3 4 4 8 9 12 14 11 11 11 12 11 12 16 19 20
11 10 10 9 9 9 10 10 10 10 10 11 11 11 10 10 10 10 10 10 10 10 10 10 10 11 10 11 10 9 12 13 7 4 6 7 8 10 10 12 14 17 17 12 9 11 9 8 9 10 10 8 8 8 8 7 7 7 8 9 8 4 5 3 2 5 5 5 7 6 6 6 2 4 6 7 9 9 11 12 13 13 15 14 12 15 15 16
11 11 11 10 10 10 10 10 10 10 10 11 11 10 10 10 10 10 10 10 10 10 10 10 10 10 10 11 8 8 10 6 3 8 5 5 6 8 12 14 15 17 15 11 9 9 9 9 9 10 9 8 9 8 9 9 7 8 7 11 12 5 5 5 3 3 3 5 7 6 7 6 4 6 7 7 10 6 7 12 13 13 17 18 15 16 16 15
12 11 11 11 11 11 10 10 10 10 10 10 10 10 10 10 10 10 10 10 10 10 10 10 10 10 10 10 8 8 9 1 6 5 2 2 4 10 14 15 16 16 14 11 10 9 9 10 9 9 8 9 9 8 11 11 8 8 7 10 13 9 8 6 4 3 3 7 8 7 6 5 6 8 4 8 8 0 1 4 8 11 16 19 16 14 16 16
12 11 11 11 11 11 10 10 10 11 10 10 10 9 10 9 10 10 10 10 10 10 10 10 10 10 10 10 9 10 11 1 6 4 2 1 6 14 16 16 17 15 14 12 10 9 9 10 10 9 8 9 9 10 9 7 7 8 9 9 8 8 9 7 6 6 6 9 8 6 6 5 8 6 2 8 5 3 1 3 8 13 14 16 15 10 13 16
12 12 12 11 11 11 11 11 11 11 10 10 10 9 9 9 9 9 9 10 9 10 10 9 9 8 9 10 9 10 8 3 8 2 2 6 11 17 17 15 16 14 13 13 10 9 8 10 11 8 9 8 6 8 6 5 10 12 12 10 6 7 9 8 8 8 7 8 7 7 8 7 7 3 2 7 4 4 4 5 9 15 12 10 12 10 13 15
12 12 12 12 11 10 11 11 11 11 10 10 10 10 9 9 9 9 9 9 9 10 8 8 8 6 6 7 10 7 1 6 7 4 6 11 14 17 15 14 14 13 12 11 8 9 7 9 10 6 8 6 3 8 7 7 9 9 12 10 7 8 9 9 8 9 8 7 7 8 9 7 4 3 4 5 6 4 7 8 9 12 11 9 11 13 14 14
13 12 12 12 10 9 10 10 11 11 11 11 10 10 9 9 9 9 9 9 9 8 7 8 6 5 7 9 10 4 4 6 6 7 9 12 14 15 14 12 12 12 11 8 8 9 7 6 5 4 7 5 4 7 8 8 3 2 9 9 8 10 8 8 8 8 8 7 7 8 9 5 5 7 5 6 8 6 10 12 9 10 11 11 13 14 14 15
13 12 11 11 10 9 9 10 10 11 11 11 10 10 10 9 9 9 9 8 8 7 7 7 4 5 10 11 9 2 4 3 5 8 10 12 13 12 11 9 11 11 9 7 8 8 5 4 2 4 5 2 5 7 8 9 5 3 7 9 10 12 10 9 9 8 9 8 9 10 8 5 7 8 3 8 9 7 10 14 12 12 11 12 13 13 13 14
13 12 11 11 10 9 9 9 10 10 10 10 11 10 10 10 9 9 9 8 8 7 6 5 4 5 11 11 5 3 5 4 5 7 10 11 12 9 6 7 9 9 7 7 8 6 4 3 4 9 4 1 5 5 5 6 6 6 8 10 11 12 12 11 10 9 10 9 10 10 8 8 10 7 7 8 9 8 9 13 15 14 12 11 12 12 12 13
13 12 11 11 10 9 9 9 10 10 10 10 11 10 10 10 9 8 8 8 7 7 6 3 2 6 10 6 3 7 5 4 5 7 9 11 10 7 5 6 7 7 6 5 5 5 5 3 6 10 5 6 6 0 1 5 7 9 9 9 8 9 10 11 8 9 10 7 8 10 8 9 12 9 9 7 8 9 9 10 13 14 14 12 12 11 12 14
13 12 11 10 9 9 9 10 10 10 10 10 11 11 10 9 9 8 7 7 6 6 5 3 2 6 8 1 8 5 3 4 5 7 9 10 9 7 7 7 6 7 5 4 2 4 5 5 8 9 6 8 6 1 5 8 7 8 10 8 7 8 7 12 8 9 11 7 8 11 7 7 10 12 8 6 8 10 9 9 10 11 12 13 12 10 11 13
13 12 11 10 9 9 9 10 11 11 10 10 10 11 11 9 8 7 6 6 5 4 3 4 5 6 7 2 7 4 4 5 7 9 9 10 10 9 9 9 7 7 5 4 3 4 6 7 8 8 6 7 6 6 8 8 7 8 8 7 7 7 6 10 9 10 11 8 11 13 7 7 10 13 9 7 7 10 10 10 10 10 11 12 10 8 9 11
12 11 10 10 9 9 10 10 11 11 11 10 9 10 9 8 7 6 6 4 3 2 2 6 7 8 7 1 9 7 7 7 8 9 10 10 9 10 11 9 8 7 6 5 4 4 7 7 8 7 4 6 8 8 7 6 7 7 7 6 7 7 7 8 8 9 9 7 12 13 9 5 9 10 8 8 8 9 9 10 10 10 11 10 8 6 6 7
12 11 10 10 10 10 10 10 10 10 10 9 8 8 6 6 6 5 4 2 3 3 5 8 5 6 5 3 9 10 9 8 8 9 10 9 6 8 12 9 7 8 7 6 6 6 7 7 6 5 5 6 7 7 7 7 6 6 7 5 5 7 4 5 8 9 8 7 11 13 12 6 10 11 8 8 9 9 9 8 9 9 9 9 6 6 6 6
11 10 9 10 10 10 10 10 10 10 10 9 7 6 4 4 3 3 2 2 3 5 8 8 6 5 4 7 8 8 9 9 9 9 10 9 6 8 11 8 7 8 7 7 8 8 7 7 6 5 6 6 6 7 6 4 4 5 6 4 4 6 7 3 8 8 9 10 12 11 9 10 9 10 7 8 8 8 9 7 7 9 8 10 9 10 10 9
11 9 9 9 9 9 10 9 9 9 9 7 5 4 3 3 2 4 7 6 6 6 4 5 8 3 2 9 5 6 8 8 9 10 10 10 8 10 10 7 7 9 8 7 8 8 6 5 6 7 7 6 4 4 4 7 10 6 3 5 6 6 7 5 9 5 5 7 10 9 8 13 13 7 6 9 7 7 9 8 7 8 9 10 12 12 13 13
10 9 8 8 8 9 8 8 9 8 7 4 3 4 3 2 2 4 8 9 10 9 5 5 12 5 2 9 7 7 7 8 10 11 12 12 10 11 9 8 8 8 8 6 6 6 4 5 8 6 0 2 3 5 8 9 10 9 6 6 6 5 8 8 9 7 3 4 9 11 9 11 11 6 5 6 7 9 9 9 9 8 9 9 10 11 14 15
10 8 8 8 8 8 8 8 8 7 6 3 4 7 3 4 3 2 2 8 12 12 9 5 8 8 1 5 6 7 8 9 11 11 12 13 12 10 9 9 9 7 9 7 3 3 2 7 9 2 6 7 5 5 6 8 7 7 8 7 7 7 5 2 6 7 3 4 9 11 8 8 11 8 6 6 8 11 11 10 10 10 10 9 10 11 11 14
10 8 8 7 7 8 7 8 7 6 5 3 7 11 3 8 6 5 6 7 8 10 9 6 7 7 3 4 5 6 7 9 10 11 12 12 13 10 8 9 10 7 8 6 3 4 7 9 6 4 5 3 2 4 5 7 8 7 8 8 7 7 4 3 6 4 4 4 9 10 8 8 12 11 8 8 9 10 10 11 11 12 12 10 9 9 9 13
10 8 7 6 7 7 6 7 6 6 5 6 10 9 4 6 6 6 6 7 5 8 9 9 9 9 9 8 7 8 10 9 10 12 12 12 12 10 7 8 10 8 6 8 7 7 5 4 4 7 3 2 3 5 7 7 8 8 8 8 7 8 8 2 4 4 3 4 9 10 7 6 9 10 8 9 10 9 9 10 11 11 10 10 9 8 8 11
10 7 6 6 6 6 6 6 5 7 8 10 12 7 5 5 7 8 6 7 5 7 8 8 9 10 8 6 8 13 11 6 8 12 14 13 10 8 9 9 8 8 7 9 10 11 5 5 7 5 2 5 7 7 8 8 7 8 9 8 8 8 8 5 2 3 4 6 8 9 7 6 10 13 11 10 10 9 8 9 10 10 10 9 9 8 8 9
10 7 6 6 6 5 5 5 6 8 9 12 12 5 3 5 6 8 6 6 5 6 7 7 7 7 5 6 8 11 9 5 5 9 15 14 9 6 6 6 6 8 8 7 8 10 3 7 5 3 3 7 9 7 9 8 7 8 9 9 10 9 6 6 4 5 6 7 7 8 8 7 10 14 12 8 9 9 9 11 12 11 11 10 8 9 8 8
10 7 6 6 6 5 4 3 4 6 9 10 6 1 4 6 5 6 5 5 4 7 8 9 9 6 7 8 10 8 8 7 5 6 11 11 8 5 5 4 5 8 3 3 6 6 3 5 2 3 5 8 8 9 9 8 8 6 5 7 9 9 7 8 8 7 7 5 5 6 7 7 7 8 7 6 9 11 10 11 12 12 11 10 9 9 9 8
12 7 7 7 6 5 4 4 4 6 7 4 1 2 6 5 4 4 4 5 4 7 8 9 7 6 7 9 11 8 5 6 7 7 9 8 6 6 7 6 6 5 2 2 5 3 5 4 2 5 8 8 8 9 7 7 8 4 1 4 8 9 9 8 9 8 8 6 5 8 9 8 7 5 5 6 8 11 10 10 10 10 10 10 9 9 9 8
15 8 8 8 7 7 8 8 9 8 5 3 2 6 6 4 4 4 5 4 3 5 5 6 5 5 6 7 11 9 1 6 7 9 11 9 8 7 8 8 7 4 6 6 4 1 4 5 5 8 8 7 9 7 5 7 8 2 2 5 7 8 8 8 9 8 7 8 6 8 9 7 8 6 6 7 9 10 10 10 9 9 8 9 7 6 5 5
19 9 8 9 8 9 11 11 11 10 6 5 5 6 5 5 5 4 5 3 4 4 3 5 5 7 9 8 11 10 5 6 5 6 10 9 9 8 6 6 8 2 5 8 6 2 4 4 4 8 7 8 10 3 3 6 7 2 3 7 8 7 8 8 8 8 7 7 8 9 8 7 7 5 5 7 9 10 8 8 7 7 7 6 4 2 3 3
20 11 7 9 7 7 10 11 13 12 7 5 6 6 5 6 4 5 5 2 4 6 4 5 6 10 12 11 11 11 11 8 3 6 9 9 10 10 6 4 5 5 6 9 8 3 4 3 3 6 8 9 8 4 1 4 6 5 5 8 9 7 7 7 7 7 7 7 10 11 10 8 6 6 6 5 3 5 5 8 6 5 5 3 2 3 3 2
20 12 6 10 8 6 7 7 7 7 5 6 7 6 6 5 4 6 4 1 3 7 7 7 8 10 13 13 9 10 11 9 7 9 9 8 9 10 7 6 5 7 7 7 9 7 6 7 6 6 8 8 8 6 5 6 7 7 7 7 7 6 6 6 6 6 7 8 8 8 9 8 7 6 3 4 4 1 3 6 6 5 3 2 1 2 1 2
19 11 6 11 10 9 9 4 4 4 4 6 7 6 6 5 6 7 4 2 3 6 7 8 9 10 13 13 9 10 10 8 9 10 10 9 9 8 8 7 4 6 7 5 5 6 6 9 9 8 6 7 8 8 6 7 8 8 8 7 6 6 5 6 7 6 7 8 5 4 6 6 7 5 2 6 6 4 2 2 3 3 1 2 1 1 2 3
17 9 6 10 11 11 11 8 6 6 6 7 7 6 5 5 7 5 4 4 3 4 4 5 7 9 11 11 8 10 10 7 9 10 9 8 7 7 8 6 4 5 4 3 4 4 6 9 10 8 6 6 8 8 6 6 6 8 8 6 6 5 6 7 7 6 7 6 3 1 2 4 7 3 4 7 5 5 4 3 3 3 2 2 2 3 4 4
14 8 6 9 10 11 11 9 8 7 7 8 6 6 7 8 6 3 4 5 3 3 5 5 7 9 10 9 7 8 7 6 9 9 7 8 7 7 7 5 6 7 4 4 5 5 7 6 7 5 3 5 8 9 8 5 5 8 8 7 7 6 6 7 6 6 6 4 3 3 1 5 6 1 4 5 5 5 5 6 5 4 3 2 3 4 5 5
12 7 6 8 10 11 11 9 8 7 7 7 6 7 8 7 7 5 6 6 4 6 7 6 9 10 9 8 7 8 6 5 8 8 7 8 7 6 6 5 5 5 5 5 3 4 9 5 6 5 3 4 7 6 7 8 6 5 6 7 7 5 6 6 6 6 4 5 5 5 4 4 1 5 5 5 7 7 6 7 7 6 5 4 4 4 5 6
9 5 6 9 11 8 8 8 7 7 7 6 6 8 8 7 7 4 2 3 4 6 8 8 9 9 8 6 7 9 8 5 7 7 6 7 5 4 5 2 1 3 5 5 3 2 7 4 7 6 6 6 5 3 4 7 5 3 5 7 7 6 5 6 7 5 3 6 7 6 7 5 3 7 8 7 7 8 8 8 8 7 6 6 5 5 6 7
9 6 7 11 10 6 7 7 6 8 7 7 7 8 7 7 6 4 1 2 4 6 7 7 6 7 7 6 7 10 10 7 7 7 6 6 3 3 5 3 1 4 4 4 5 3 4 5 3 6 8 6 2 6 7 8 7 6 5 3 5 7 5 5 7 5 5 8 7 7 9 8 6 5 8 10 9 8 9 9 8 7 7 7 6 7 7 7
11 9 9 10 7 4 6 7 7 8 7 7 9 9 9 7 4 3 2 3 6 6 8 7 5 5 8 7 7 8 9 7 7 7 6 6 4 2 5 4 3 3 3 3 5 2 1 6 7 8 8 4 4 7 9 9 10 10 8 5 4 6 6 5 6 6 7 8 6 8 10 8 7 4 7 9 9 9 9 8 9 8 7 7 7 8 8 8
11 9 7 7 6 4 7 8 7 8 7 7 9 8 9 8 4 2 2 4 8 7 8 9 7 6 8 8 7 7 7 6 7 6 6 5 3 2 3 2 3 3 2 4 5 1 1 6 6 5 5 3 3 6 8 8 10 11 10 8 7 6 6 6 5 5 7 7 7 8 8 6 5 2 6 8 9 10 9 8 8 8 7 7 7 8 8 8
9 7 3 7 5 5 8 8 7 7 7 8 9 7 7 7 5 3 3 6 7 5 7 8 7 7 8 9 9 7 6 7 7 6 5 4 4 4 3 2 3 3 1 4 5 2 2 5 6 6 5 5 5 5 6 6 5 7 8 7 7 6 6 6 7 7 7 8 7 7 8 5 1 2 2 5 7 10 9 8 8 7 8 7 8 8 8 8
7 6 2 7 5 7 8 7 7 7 8 8 9 10 5 4 4 5 4 6 7 5 6 7 7 6 7 8 8 7 6 7 7 7 6 6 6 5 2 1 3 2 1 5 5 2 4 5 6 7 7 7 6 2 4 7 6 5 5 5 6 6 5 7 8 7 7 8 7 8 8 4 2 2 2 5 5 8 9 9 8 8 9 9 9 9 9 9
7 5 3 6 4 7 7 7 7 6 8 7 8 8 2 2 6 5 4 7 8 7 5 6 8 7 6 7 6 7 7 6 7 7 5 6 5 2 5 4 1 2 3 6 3 3 2 4 6 8 8 10 10 4 2 5 8 10 9 8 8 6 6 8 8 6 7 8 8 9 8 3 3 2 2 4 4 6 7 8 9 8 9 10 10 10 10 9
6 3 5 7 4 7 7 8 7 7 7 7 7 6 2 3 7 5 4 7 7 6 5 5 6 7 7 7 6 7 6 5 8 7 4 5 1 7 7 4 2 3 4 7 4 3 2 4 7 8 8 11 14 11 7 5 7 11 10 9 9 9 9 9 9 7 7 8 8 8 8 2 3 2 2 1 3 5 5 7 9 9 8 10 10 10 10 9
4 4 3 5 5 7 7 7 8 8 8 8 8 6 5 5 6 5 5 6 5 5 5 5 5 5 5 5 5 8 7 5 7 6 5 5 3 9 5 4 2 6 3 3 3 2 1 5 6 7 8 7 9 11 9 7 6 7 8 11 12 11 11 10 9 8 8 11 11 9 9 3 3 2 1 4 5 6 7 8 10 9 8 9 9 9 9 9
5 5 3 3 5 7 7 6 6 7 6 7 8 8 8 5 3 5 6 4 2 4 4 4 4 4 5 5 5 8 8 5 5 5 4 5 3 6 4 4 4 6 3 8 6 3 3 6 5 6 7 6 7 7 5 4 4 5 8 12 11 9 10 9 8 8 9 11 12 11 9 3 4 4 3 4 6 8 9 9 8 9 8 8 8 8 8 8
4 3 3 2 4 5 6 4 6 8 6 6 7 8 9 8 5 3 6 5 3 4 6 5 4 5 7 7 6 8 9 8 7 6 5 6 4 5 4 4 4 1 7 6 5 5 5 6 8 9 10 9 10 10 9 8 7 8 10 11 10 9 10 9 8 8 9 10 11 11 12 8 6 6 5 5 6 7 7 7 7 7 8 7 7 7 7 7
3 2 3 2 1 3 4 2 4 6 4 4 4 4 7 10 5 4 5 4 2 4 6 5 6 7 7 8 7 8 9 9 9 8 7 8 5 6 5 4 3 5 5 1 4 4 5 7 10 13 14 14 15 16 16 14 13 14 14 14 14 15 14 11 10 11 11 10 11 12 12 12 11 8 5 5 6 6 6 6 7 7 7 7 7 7 7 7
3 2 3 3 3 2 1 2 4 4 2 2 3 3 5 9 7 4 4 3 2 3 5 4 6 8 8 8 7 7 9 9 8 9 8 8 7 4 6 6 6 7 5 6 5 3 6 8 10 13 15 15 16 17 17 16 15 16 17 16 17 18 18 16 15 16 14 11 12 14 15 14 12 10 9 8 7 7 8 8 8 7 8 8 8 8 8 8
4 2 4 4 4 2 4 4 5 5 3 2 2 2 4 8 7 3 2 3 3 3 3 4 6 7 7 6 6 6 8 8 8 8 7 6 8 6 4 7 7 7 6 8 5 2 4 6 8 11 13 15 16 17 17 16 16 17 19 19 18 19 20 19 19 19 19 18 18 18 19 18 14 12 12 11 8 7 7 8 8 9 10 10 9 9 9 8
5 3 5 5 3 2 3 4 5 5 3 1 1 2 3 5 5 3 2 4 3 2 3 6 7 5 4 5 5 3 4 5 3 3 4 4 6 6 6 7 5 5 7 8 6 3 2 4 7 9 11 13 15 16 17 17 18 18 20 20 20 20 20 19 19 18 18 19 19 19 18 15 12 11 12 12 11 10 10 10 11 10 11 11 11 10 10 9
8 4 4 6 3 3 4 3 3 5 3 1 2 2 2 3 3 2 1 4 3 2 4 6 5 4 6 5 1 4 7 6 4 4 3 4 5 5 5 5 5 5 7 7 6 4 4 6 8 9 10 11 13 15 17 17 18 19 20 20 20 19 17 17 16 15 15 16 17 17 14 11 9 10 12 13 15 15 13 13 13 12 12 13 12 11 10 9
12 6 5 6 2 2 4 3 1 3 1 3 3 2 2 2 2 1 1 2 2 3 4 5 5 5 6 3 2 5 6 6 5 5 4 5 6 6 6 5 5 6 6 7 6 6 6 7 8 8 9 11 13 15 15 14 13 13 12 13 17 18 18 19 18 17 17 16 14 13 12 10 11 11 10 12 14 14 12 11 12 12 12 12 12 12 11 9
Wind_Direction
325 323 319 317 316 315 314 312 312 308 307 304 302 301 298 299 298 299 299 296 299 298 298 296 294 299 298 302 299 303 315 305 294 268 245 245 258 266 257 244 217 202 182 194 204 201 203 212 218 211 221 219 218 236 207 207 233 228 230 240 243 245 246 252 253 291 343 282 80 47 19 329 304 324 268 233 238 241 217 206 196 152 67 76 113 127 139 146
324 322 321 319 317 316 315 314 312 309 307 305 302 301 299 297 298 297 296 294 293 295 297 295 295 297 297 300 299 312 319 299 282 268 250 246 253 251 250 245 210 190 183 199 204 205 208 207 208 206 220 221 208 214 196 198 218 228 234 235 240 250 261 330 308 332 329 303 348 359 332 328 309 323 301 248 230 220 219 199 171 144 97 87 112 127 137 145
325 323 321 318 317 314 312 313 310 309 307 306 302 299 297 297 299 296 295 295 290 292 293 293 295 294 297 301 303 319 317 295 275 257 230 230 243 244 237 218 197 184 188 206 208 209 220 219 205 206 221 223 208 196 194 192 203 229 240 242 240 253 280 6 309 295 290 301 308 294 315 309 296 333 299 271 248 216 217 197 180 180 145 129 131 133 140 152
323 319 318 316 316 313 312 312 309 309 306 304 302 296 294 293 296 296 296 293 287 288 289 291 291 290 297 302 309 321 304 283 263 149 154 214 240 232 212 197 188 184 201 225 223 217 232 235 210 213 225 226 212 205 218 194 189 224 230 248 252 265 282 270 275 272 270 284 284 290 294 279 319 324 273 265 259 226 218 207 195 185 153 143 150 149 153 167
319 317 316 314 314 312 310 309 307 308 303 301 300 298 297 293 292 291 289 289 286 286 286 287 289 291 296 300 311 308 287 272 116 106 128 248 251 213 191 187 184 185 209 229 220 216 224 224 214 218 228 236 215 205 232 207 202 243 233 252 267 291 282 266 274 271 283 280 268 262 266 292 333 283 255 252 254 237 228 217 197 173 151 148 159 164 163 174
319 316 313 311 310 310 310 308 307 305 301 300 300 299 298 296 293 288 286 287 286 286 286 287 289 291 294 299 305 281 266 289 79 83 70 296 227 183 178 180 178 188 215 221 206 207 213 214 212 215 223 237 223 210 232 210 200 249 239 238 255 267 270 277 280 268 272 262 253 254 279 323 296 268 241 243 249 286 288 206 163 145 142 146 156 171 168 169
317 314 310 308 307 308 308 308 307 304 301 301 301 298 297 298 295 290 287 286 283 283 284 287 287 290 302 304 289 252 245 307 63 57 50 101 167 162 169 171 175 199 219 215 203 205 210 210 211 216 221 230 227 220 220 204 205 242 253 243 240 252 261 270 268 258 249 249 249 262 284 278 264 273 202 231 220 107 57 104 125 124 132 148 148 172 178 164
315 314 311 308 308 307 306 305 303 301 299 299 300 299 298 299 297 294 288 284 282 279 280 286 286 292 316 313 283 240 234 33 67 81 110 132 149 156 163 168 184 208 212 208 206 211 212 211 217 219 226 230 231 222 192 204 228 230 248 256 248 248 254 254 250 247 244 247 244 247 261 254 255 286 227 219 161 141 189 148 134 123 127 147 142 179 187 158
316 314 312 309 308 304 302 303 300 299 299 298 298 297 296 295 295 294 289 286 281 279 278 280 284 297 318 302 279 257 150 60 79 120 133 141 152 161 169 176 193 207 207 209 213 223 217 213 224 230 249 263 241 226 201 215 234 222 236 251 252 249 246 242 238 238 240 235 230 234 240 234 224 239 224 186 123 152 181 140 114 121 139 155 161 191 178 152
316 313 310 307 304 300 302 303 300 299 297 296 297 296 296 293 292 293 291 288 282 281 277 278 291 310 297 271 266 273 87 77 102 134 146 152 158 171 188 189 189 205 210 208 213 226 231 228 234 245 267 278 229 229 218 224 265 250 243 257 258 259 253 244 243 239 239 225 216 230 234 206 183 217 216 140 126 166 165 133 118 136 158 173 180 188 168 158
315 311 308 304 301 301 301 300 298 296 295 296 297 297 298 295 292 289 287 286 283 281 277 287 317 310 285 271 270 300 98 101 116 146 162 163 168 180 198 192 188 210 208 194 210 221 247 265 243 236 258 264 209 223 225 235 287 279 251 262 248 251 247 235 239 231 230 216 203 227 234 180 188 213 171 129 146 171 152 140 152 158 164 182 183 180 169 162
313 309 303 298 299 297 296 296 293 292 294 294 293 296 296 295 291 284 283 284 284 283 278 296 334 312 288 273 266 69 97 122 121 152 169 171 182 187 193 190 196 219 207 190 200 203 246 269 236 245 265 294 220 218 219 228 264 253 244 258 239 231 227 217 223 215 215 201 183 221 230 189 202 187 114 130 158 171 161 152 165 166 165 186 187 179 172 165
311 306 298 295 296 292 289 291 289 290 294 295 296 295 293 293 290 282 278 277 281 284 281 292 322 292 280 274 110 97 101 127 134 153 168 178 191 197 199 200 209 230 232 223 189 181 231 247 251 267 283 258 245 52 238 219 244 242 232 249 244 231 209 192 205 201 203 181 161 216 228 196 195 151 117 145 164 175 176 164 170 166 162 182 192 182 171 167
310 303 297 295 294 289 287 285 287 291 293 297 298 296 296 293 286 280 273 272 275 277 283 296 300 273 266 250 100 126 145 132 158 164 167 179 183 182 187 192 202 207 223 260 212 187 246 255 254 271 262 254 280 346 231 225 230 233 224 224 237 243 180 162 182 195 196 155 163 218 238 213 175 131 130 156 169 186 183 175 177 163 163 178 182 183 174 167
309 303 295 291 288 284 282 281 284 289 293 298 296 297 298 290 284 275 265 268 273 283 316 294 259 252 259 176 125 159 170 166 188 175 168 176 169 160 168 175 182 188 201 237 232 219 250 251 247 257 225 222 263 247 224 219 212 223 228 212 227 240 148 150 173 199 206 165 184 216 239 219 159 129 144 160 183 199 190 182 179 169 175 178 166 178 182 164
310 301 292 287 283 279 278 278 281 285 292 295 294 298 295 287 280 265 260 251 261 312 322 273 234 232 278 96 134 168 192 188 180 169 175 185 175 156 157 168 173 183 203 220 232 235 238 241 249 269 252 206 227 239 233 219 200 211 233 223 223 210 155 159 176 197 210 173 188 214 246 231 132 130 154 165 193 203 202 188 180 184 177 168 155 168 189 169
310 299 290 285 280 278 277 276 279 285 292 296 298 297 290 288 271 255 265 233 258 280 251 272 268 241 276 102 147 182 190 174 160 168 178 196 209 160 160 176 179 184 200 209 223 232 226 231 239 245 247 234 236 246 241 228 203 195 225 242 238 234 207 163 163 182 193 196 202 206 241 245 129 142 159 170 199 201 209 196 184 198 170 145 151 170 184 190
313 301 291 282 278 278 274 275 281 285 291 296 295 293 294 307 294 256 256 197 214 238 243 260 269 264 215 167 175 176 168 161 164 178 175 188 212 175 176 191 180 185 202 204 210 219 212 216 235 231 221 225 231 236 233 255 263 207 207 232 221 246 272 196 143 167 185 213 228 201 225 244 179 160 162 181 207 206 210 206 194 207 182 160 182 192 184 197
317 307 297 285 280 276 272 276 279 282 291 296 302 309 314 320 298 240 227 205 196 224 253 197 202 279 122 164 163 125 146 157 167 183 179 182 195 191 202 215 197 198 210 200 188 205 216 212 230 237 225 210 211 251 313 344 331 314 249 246 228 212 234 195 111 117 200 222 241 214 211 242 228 204 199 194 205 222 213 207 203 211 207 190 199 199 176 182
322 313 302 288 280 275 273 275 274 283 287 280 293 285 263 263 239 205 209 215 225 253 296 178 193 248 116 150 142 126 147 167 183 194 186 182 192 201 209 215 209 209 228 222 167 186 236 238 232 234 279 45 27 351 345 339 330 321 301 273 266 237 221 202 126 117 239 251 246 231 216 244 248 229 224 203 199 227 218 206 208 210 220 211 212 206 168 163
326 316 300 289 284 277 272 271 271 280 273 243 253 260 288 2 338 1 277 234 226 238 261 225 215 255 262 131 147 158 167 180 196 198 184 186 200 205 196 204 217 211 224 232 148 140 235 249 242 252 41 35 10 345 331 313 300 286 275 264 254 245 242 223 122 130 183 247 252 243 228 249 256 235 222 213 211 228 222 209 210 210 221 219 220 219 170 149
328 315 301 291 285 278 271 271 269 268 263 215 239 253 325 23 355 343 328 271 221 213 235 234 232 246 220 185 182 194 210 191 187 184 175 188 206 207 180 192 229 221 196 205 210 199 217 241 229 97 48 21 337 296 278 275 273 262 255 257 251 238 234 95 111 161 184 232 257 250 230 235 251 242 212 205 221 233 224 214 213 212 218 216 214 223 183 154
329 316 302 292 288 283 274 273 265 252 233 213 243 264 343 12 339 323 300 280 244 200 214 215 212 209 192 196 185 199 223 195 174 173 171 194 211 219 214 207 231 231 189 196 226 237 230 229 139 104 77 257 230 239 244 249 250 249 247 250 249 239 245 201 147 204 220 245 274 279 266 244 255 249 212 204 223 231 220 215 217 213 216 218 213 220 205 179
329 315 299 293 291 283 278 278 264 245 221 225 255 284 344 334 325 322 292 274 258 190 196 201 209 212 183 165 174 202 229 206 179 168 166 199 209 203 234 239 232 233 224 212 224 248 258 84 100 113 141 231 238 221 229 250 239 233 241 254 262 252 264 278 167 186 239 237 254 274 271 244 242 238 221 205 211 221 211 209 215 207 208 216 216 219 218 210
332 311 296 291 288 279 280 273 243 235 220 232 253 266 313 314 324 321 297 267 241 169 175 187 206 214 159 141 178 209 244 227 195 156 159 202 219 193 226 242 239 236 221 199 220 249 248 92 119 171 193 228 245 234 223 243 254 237 223 237 271 279 272 265 217 196 243 235 208 230 254 249 237 231 224 200 194 215 211 205 208 200 200 205 208 215 218 224
336 305 287 278 282 273 262 259 225 227 233 237 240 250 305 314 329 312 286 257 210 157 167 181 188 179 159 180 186 208 242 202 166 139 163 207 239 256 247 194 223 258 237 164 239 256 120 108 178 195 229 233 238 249 229 220 256 264 207 206 249 269 254 248 246 228 253 261 170 196 256 270 249 227 216 197 194 209 207 203 206 196 195 200 200 206 207 210
340 300 274 263 263 246 241 321 322 256 255 248 158 316 305 316 328 297 261 248 197 165 168 165 169 175 172 183 184 205 231 152 146 168 184 208 218 243 250 208 209 238 242 225 249 246 135 147 192 199 233 239 236 249 223 207 249 279 52 212 231 248 240 237 249 243 258 271 178 193 240 264 264 235 197 198 206 208 198 198 210 203 197 202 205 206 206 202
343 306 260 251 248 239 251 301 303 268 282 8 331 298 315 320 290 250 250 251 157 157 175 140 125 180 183 179 199 222 205 141 181 180 173 197 208 221 237 245 253 197 176 227 233 151 179 188 202 214 226 237 242 242 177 200 245 278 347 265 247 250 241 235 247 246 256 266 238 223 234 250 260 239 183 186 216 224 201 188 205 212 205 204 207 211 213 208
344 315 253 242 247 250 254 273 279 273 309 348 306 307 324 293 264 234 255 262 153 160 179 135 140 190 192 186 205 221 210 200 211 149 156 189 213 238 258 266 280 244 176 234 247 164 192 201 216 226 229 238 247 263 126 205 243 300 306 265 254 251 241 239 249 251 254 255 255 249 236 244 261 248 205 190 219 240 210 182 198 210 212 205 191 213 232 221
343 321 253 226 232 252 250 244 247 260 293 314 302 314 295 259 247 236 240 231 179 172 154 159 177 186 191 194 195 202 206 205 172 150 176 190 196 222 263 271 266 257 214 226 246 228 156 167 245 241 243 260 275 313 323 249 266 283 270 250 242 241 238 241 248 256 260 245 243 245 234 236 253 250 233 190 208 257 197 172 180 189 195 174 145 226 240 246
341 324 247 211 212 237 243 227 230 250 278 304 304 294 265 238 238 246 231 189 199 176 164 183 176 168 192 205 191 188 204 196 169 179 188 185 190 202 221 219 225 244 231 217 235 234 184 186 211 214 230 263 277 264 236 239 254 253 249 245 236 234 234 239 240 239 250 252 253 251 233 226 245 257 237 135 135 195 163 162 167 175 173 112 101 262 300 351
339 321 242 214 219 236 254 286 344 304 283 301 294 263 247 236 238 241 215 181 193 176 181 193 182 180 201 211 197 185 199 191 177 193 198 188 192 203 211 208 208 232 235 227 228 229 222 220 206 183 199 240 253 243 213 207 230 238 237 241 240 238 233 236 239 229 240 253 257 257 236 223 249 264 149 134 145 143 139 144 147 165 141 60 15 327 19 3
335 312 238 222 227 236 254 283 307 301 291 288 275 247 243 246 245 244 221 205 162 165 200 185 184 199 204 209 203 189 191 183 182 202 218 212 199 204 217 224 253 265 255 253 240 221 233 227 206 185 180 210 237 243 219 196 215 235 237 236 238 241 240 243 245 238 242 242 219 248 279 246 255 261 129 134 130 125 148 142 111 129 117 59 7 16 30 18
332 298 236 228 234 237 247 264 277 285 284 271 254 235 237 245 253 260 239 227 184 189 207 183 192 203 207 213 202 195 202 189 192 202 207 219 217 209 215 214 235 259 258 248 251 248 257 235 202 201 151 176 229 250 262 263 235 238 244 242 243 250 251 255 265 264 268 267 211 171 204 255 252 206 119 132 138 144 153 143 129 132 124 84 51 36 34 34
326 283 233 232 238 240 244 255 267 265 263 259 245 235 234 241 247 240 232 228 208 200 195 194 211 207 206 214 191 196 225 209 206 218 210 219 226 210 211 198 200 244 258 250 234 243 268 255 164 165 151 191 238 252 271 279 258 240 249 243 243 250 253 263 279 281 298 306 258 204 212 257 192 145 153 146 153 158 151 150 150 141 124 99 84 65 52 49
315 252 219 230 229 228 234 242 245 236 246 254 245 238 235 239 250 258 230 211 228 222 198 196 219 220 208 208 197 197 208 210 211 218 216 225 236 207 203 181 157 254 265 272 287 249 265 257 130 155 206 218 256 283 260 260 265 260 246 247 259 264 263 271 271 256 231 261 261 239 242 247 189 172 173 172 172 160 160 170 160 140 125 109 94 75 61 56
309 242 228 227 213 206 220 222 221 227 244 254 246 249 253 250 257 287 304 225 269 265 234 213 215 234 223 204 214 205 194 201 211 215 220 218 213 195 196 164 149 274 286 291 289 278 272 273 217 225 229 190 216 280 259 247 263 273 255 269 289 272 263 266 266 255 240 254 255 244 251 248 242 218 173 183 193 174 177 179 157 150 138 114 97 82 68 58
300 265 251 224 198 206 212 201 215 234 245 249 245 251 262 264 252 259 273 269 271 256 244 242 218 237 242 221 222 210 190 199 209 218 234 210 166 176 210 183 158 240 297 293 267 252 266 274 261 245 237 176 172 252 257 241 237 251 271 300 294 263 257 249 253 262 260 265 266 254 256 254 253 229 164 191 205 182 183 179 163 166 149 118 101 90 76 63
279 262 244 187 173 201 193 189 219 239 241 243 244 241 248 254 239 241 275 261 261 252 244 247 228 226 243 240 239 219 202 221 222 222 238 218 175 178 224 225 162 177 238 268 272 291 231 266 269 248 232 220 220 237 249 241 222 229 256 267 255 256 272 264 254 261 263 265 271 270 266 258 257 200 158 198 208 185 183 182 173 162 136 117 102 94 83 72
262 259 199 140 148 171 173 194 225 234 236 239 248 249 249 251 227 207 255 255 258 260 260 262 242 225 234 240 246 235 219 235 240 240 240 212 179 177 191 224 206 171 167 254 270 288 249 257 271 264 236 232 246 243 260 274 245 226 240 247 243 244 261 268 260 259 265 268 269 274 269 260 306 70 162 223 207 184 185 183 167 145 128 116 101 97 92 85
260 260 168 127 139 157 169 211 225 229 239 235 245 256 269 292 244 206 210 245 259 261 270 285 276 253 245 242 241 236 233 240 244 249 248 222 206 195 139 136 222 223 209 235 248 265 258 256 262 267 255 243 249 270 313 312 307 278 267 266 264 258 257 264 262 257 264 269 270 274 274 279 27 50 251 258 213 179 182 175 156 143 134 120 106 104 101 98
252 251 136 119 152 170 188 230 226 229 244 239 250 258 283 330 261 235 204 222 242 247 242 265 275 271 265 259 251 243 242 247 246 244 245 243 229 141 101 114 210 275 266 260 279 45 359 288 268 265 264 266 273 268 258 294 296 285 277 275 278 278 271 266 267 274 277 276 278 279 276 288 54 22 277 255 206 173 175 169 154 146 135 125 119 114 108 105
242 244 122 128 181 198 214 239 232 232 241 243 256 256 244 255 247 242 227 218 224 236 231 239 259 260 257 260 265 259 250 254 258 254 251 254 124 94 108 125 166 235 242 268 280 90 90 261 259 264 263 264 268 254 225 232 269 269 263 262 264 264 267 272 279 290 287 276 277 275 270 253 92 43 22 103 158 158 174 174 159 150 139 133 128 122 118 115
281 281 138 134 175 208 228 240 236 237 233 232 242 239 230 249 253 253 249 228 222 242 246 247 254 253 250 253 263 265 260 253 253 248 259 269 111 106 119 118 202 237 233 330 340 93 200 250 247 263 265 253 250 244 230 223 242 260 259 252 252 263 276 281 284 285 272 265 267 267 270 264 114 127 132 137 159 168 177 176 161 155 153 146 137 131 128 124
294 265 222 163 172 208 235 259 265 263 251 239 244 242 230 218 235 277 280 266 269 286 274 267 273 268 257 252 253 260 262 262 255 236 250 269 127 116 130 137 225 255 52 33 349 310 265 269 263 264 265 259 254 253 257 257 254 273 273 257 250 266 281 281 279 271 260 265 268 265 270 268 136 172 197 187 196 188 184 184 173 164 162 154 143 137 135 132
291 257 237 196 182 217 241 264 271 267 267 257 245 243 240 223 189 228 265 256 242 265 268 269 277 264 258 260 258 257 253 244 242 238 245 248 189 137 137 172 217 329 66 51 322 285 267 266 263 262 263 268 276 285 301 305 285 277 281 274 259 253 258 263 270 268 270 278 271 262 270 273 236 216 207 204 217 212 194 194 194 178 164 156 149 145 144 140
308 315 342 334 237 228 224 228 261 260 261 260 251 247 252 247 221 180 219 240 235 255 258 258 259 253 252 257 254 257 259 245 235 239 249 254 226 136 128 210 208 106 93 187 235 251 264 258 255 259 262 267 276 282 285 285 281 278 277 273 267 263 261 260 260 267 279 283 270 267 277 279 270 261 244 222 229 236 223 212 213 194 168 165 163 157 159 156
351 352 22 345 298 272 283 344 326 304 286 249 254 264 258 254 244 206 213 241 232 241 250 248 253 252 248 251 250 249 257 254 243 241 243 250 247 168 152 213 200 145 173 229 206 218 265 261 258 261 262 263 267 271 272 272 274 275 271 268 268 268 267 264 262 264 269 268 269 279 287 284 281 282 277 265 249 243 237 229 224 207 189 190 187 181 185 183
3 13 33 333 299 349 356 334 317 303 308 328 292 272 269 262 250 237 281 283 238 229 267 260 252 256 257 259 262 255 258 263 255 249 250 255 261 249 212 219 201 168 207 236 211 197 267 267 266 269 270 269 268 269 270 270 270 270 267 263 262 262 262 263 263 264 264 264 267 275 280 280 279 279 280 282 281 269 252 239 231 224 216 209 203 203 208 205
355 5 1 316 296 12 347 314 295 273 248 271 281 260 287 283 255 232 302 320 283 267 303 278 255 259 279 272 269 292 338 338 312 288 295 280 264 263 257 253 244 210 219 237 224 194 232 267 273 278 276 274 275 276 274 271 270 270 266 262 260 259 259 259 261 263 263 264 268 272 274 276 279 280 276 272 270 269 257 243 237 233 227 221 218 221 223 220
347 346 332 309 319 358 316 291 288 275 247 200 296 295 308 299 274 249 17 8 347 347 337 316 300 281 271 260 276 24 19 8 5 12 340 290 273 279 277 281 288 259 235 242 243 216 223 265 276 276 270 268 272 273 272 273 273 270 265 262 261 260 261 262 262 263 264 267 272 274 271 271 274 273 272 270 266 261 252 245 243 236 231 231 229 227 224 220
351 345 328 309 311 8 314 280 259 281 306 40 4 328 299 288 283 308 351 15 28 17 356 338 323 285 262 256 47 23 360 347 345 342 315 288 281 281 280 280 286 281 267 263 259 244 245 264 273 271 269 271 271 271 275 280 278 272 270 270 267 263 263 263 260 261 263 264 267 267 266 276 284 281 281 283 277 269 265 264 261 250 241 239 235 231 227 217
Height
799 799 798 797 796 795 795 794 793 793 792 792 791 790 790 789 788 788 788 787 787 786 785 784 783 783 781 780 779 777 776 775 774 772 769 765 763 763 764 764 765 765 767 767 766 765 764 764 762 761 761 758 758 754 749 750 748 752 759 763 758 751 742 732 731 731 733 730 728 732 734 739 740 733 727 726 730 728 727 727 725 726 729 732 735 741 748 755
799 798 797 796 796 795 794 793 793 792 792 791 790 790 789 789 788 787 787 786 786 785 784 784 783 782 781 780 778 777 776 775 773 768 764 762 763 763 763 764 764 765 766 766 764 762 761 761 759 759 759 757 754 751 750 750 750 754 756 758 754 742 731 726 730 731 734 734 732 734 735 737 739 734 729 732 734 729 731 730 729 734 741 744 743 747 751 755
798 798 797 796 795 794 794 793 793 792 791 791 790 789 788 788 787 786 786 785 785 784 784 783 782 781 780 779 778 777 777 775 770 763 760 761 762 762 763 763 763 764 765 764 762 760 759 757 756 757 758 756 751 750 753 751 751 753 752 755 747 733 728 728 733 735 735 736 737 737 736 736 735 731 732 735 733 729 731 730 733 740 744 750 749 750 754 756
798 797 796 795 795 794 793 792 792 791 790 790 789 789 788 787 787 786 785 785 784 783 783 782 781 780 779 779 778 778 777 774 764 757 758 760 761 761 762 763 763 764 764 763 761 759 758 756 755 756 757 756 750 749 752 749 750 750 749 752 738 730 735 733 734 735 734 736 739 739 738 737 732 730 733 734 736 733 728 725 729 735 741 751 753 753 758 760
797 796 795 795 794 793 792 792 791 790 790 789 789 788 787 787 786 786 785 784 783 782 782 781 780 779 779 778 778 778 779 773 759 755 759 759 759 760 761 762 763 764 763 763 761 759 759 756 755 756 757 755 749 751 752 745 746 748 746 746 735 733 740 735 732 736 736 738 739 740 740 735 731 732 731 733 738 733 725 720 720 726 736 749 755 755 759 762
796 795 795 794 793 792 791 791 790 790 789 788 788 787 787 786 785 785 784 783 782 782 781 780 780 779 778 778 777 779 778 768 756 756 759 758 758 759 761 762 763 763 763 762 759 758 758 755 757 758 757 754 750 751 750 741 744 752 747 742 737 736 740 736 734 737 738 740 741 738 735 733 735 734 729 731 732 726 720 715 718 725 732 743 752 754 757 759
795 794 793 792 792 791 790 790 790 789 788 788 787 786 786 785 784 784 783 783 782 781 780 779 779 778 777 777 777 777 772 761 755 758 758 758 759 758 761 762 763 764 762 760 757 757 756 755 757 755 755 754 750 747 745 741 745 753 749 740 737 737 738 737 736 737 737 739 738 734 733 735 738 734 729 729 726 723 722 718 722 731 737 744 750 756 757 755
794 793 792 791 791 790 790 789 789 788 787 787 786 786 785 784 784 783 782 782 781 780 780 779 778 778 777 777 775 770 765 758 756 758 758 758 759 759 762 762 763 762 760 758 755 754 754 755 754 750 753 750 746 745 744 748 749 750 749 740 737 738 737 736 735 736 736 736 733 733 737 735 733 731 730 729 724 724 724 722 725 734 744 748 751 759 758 753
793 792 791 791 790 789 789 788 788 787 786 786 785 785 784 784 783 782 781 780 780 779 779 778 778 777 778 777 774 766 759 757 757 758 758 760 760 761 762 761 763 760 758 756 753 753 752 753 750 747 751 747 745 746 744 752 751 744 743 739 738 739 736 734 735 735 735 733 732 735 738 732 728 730 732 726 725 726 724 726 731 737 748 751 755 759 755 752
792 791 791 790 789 788 788 787 787 786 786 785 784 784 783 782 782 781 780 780 779 779 778 778 777 777 778 776 772 765 758 757 759 759 760 761 761 762 761 760 761 759 756 755 754 753 750 749 747 745 748 746 746 746 744 749 745 739 741 739 739 739 734 733 734 733 733 731 731 736 736 730 726 731 735 727 725 726 725 733 740 744 751 755 757 756 750 751
791 790 790 789 788 788 787 787 786 785 785 784 784 783 782 781 781 780 780 779 778 778 777 777 777 777 777 774 769 761 756 758 759 759 761 761 762 761 760 759 759 758 755 754 754 752 750 748 746 747 749 747 746 747 744 742 741 740 742 742 740 738 735 733 735 734 733 732 730 732 732 729 728 731 732 727 726 726 727 736 743 745 750 755 755 752 747 747
790 790 789 788 787 787 786 786 785 785 784 783 783 782 781 780 780 779 779 778 778 777 777 777 777 777 776 771 764 758 756 759 759 760 761 761 761 760 759 759 758 756 754 753 753 752 752 750 748 750 749 746 746 748 743 738 740 741 742 746 740 736 735 733 732 731 731 731 726 729 736 736 733 730 728 726 726 727 729 735 741 744 749 754 754 749 746 745
789 789 788 787 787 786 786 785 784 784 783 782 782 781 780 779 779 779 778 778 777 777 776 776 776 777 776 767 758 758 758 759 759 760 760 760 760 759 759 760 758 757 755 752 752 752 754 752 751 750 746 746 745 743 741 738 741 743 741 743 740 737 735 730 728 729 730 728 723 732 745 741 730 727 728 727 726 728 731 732 735 739 746 753 753 748 744 745
789 788 787 786 786 785 785 784 784 783 782 782 781 780 779 778 778 777 777 777 777 776 776 776 776 777 775 763 756 759 759 759 760 759 759 759 759 759 759 759 759 758 756 754 753 753 754 752 752 750 746 745 742 739 742 742 741 742 740 740 739 738 733 726 727 730 731 729 724 734 746 736 725 727 729 727 727 729 732 732 731 734 741 748 749 747 745 746
788 787 786 786 785 785 784 783 783 782 782 781 780 779 778 778 777 776 777 776 776 776 775 776 775 775 770 760 756 759 759 759 759 758 758 758 757 757 758 758 758 758 757 756 755 755 755 753 752 751 746 742 743 745 745 743 739 738 743 744 736 732 732 727 726 727 730 728 724 735 743 731 723 727 728 726 727 729 731 733 732 734 739 742 745 748 748 748
787 786 785 785 784 784 783 782 782 781 781 780 779 778 777 777 776 776 776 775 776 776 776 775 773 773 768 758 755 758 758 756 755 756 757 756 754 754 756 757 757 757 758 756 756 755 753 752 751 748 744 743 746 746 743 741 740 736 739 742 732 729 733 731 727 723 724 728 727 733 737 728 725 728 727 726 728 729 731 731 732 734 735 739 744 750 752 752
786 785 784 784 783 783 782 782 781 781 780 779 778 777 777 776 775 775 775 775 776 775 776 774 770 771 766 756 756 757 754 753 754 755 756 756 754 753 755 756 755 755 755 755 756 754 752 752 750 747 746 745 743 742 747 749 744 737 735 736 731 727 728 730 732 725 722 729 730 731 733 728 727 728 728 728 727 729 732 731 732 732 734 741 746 751 757 760
784 784 783 783 782 782 782 781 781 780 779 779 778 777 776 776 775 775 775 775 776 776 776 773 771 772 765 755 753 751 749 751 754 754 755 756 755 754 754 753 752 754 755 756 755 753 752 750 748 750 747 745 743 741 750 750 739 736 736 737 737 732 729 729 733 728 725 732 730 728 734 731 725 724 727 729 727 730 732 732 733 732 734 742 747 749 756 762
784 783 782 782 781 781 781 780 780 779 779 778 777 777 776 776 776 775 775 774 773 771 769 765 765 765 759 751 748 747 748 751 754 754 754 755 755 754 752 751 751 753 756 757 755 752 750 751 751 753 748 744 743 740 744 744 736 734 733 734 735 734 732 726 730 730 727 735 733 729 736 733 724 722 725 727 728 731 732 732 734 734 733 737 741 743 751 760
783 782 782 781 781 781 780 780 779 778 779 778 778 778 776 773 772 770 770 770 765 758 754 753 753 752 748 746 745 748 751 752 753 752 752 753 754 753 752 752 751 753 755 753 753 748 747 756 754 748 745 743 742 742 745 745 742 741 737 736 733 733 730 721 726 733 729 738 738 728 731 731 724 724 725 726 731 734 734 734 735 736 735 734 735 738 746 754
782 782 781 780 780 780 779 779 778 778 778 777 779 777 769 766 767 767 765 761 754 750 750 748 747 747 746 744 744 747 749 752 751 749 751 752 751 754 753 752 755 756 753 748 749 749 752 760 750 740 743 745 745 746 748 748 747 746 743 741 736 733 730 720 726 733 732 742 740 726 730 734 729 727 727 728 734 736 733 734 736 736 736 735 734 735 740 748
782 781 780 780 780 779 779 778 778 778 777 777 778 772 764 764 768 767 765 760 750 746 748 747 748 747 745 745 745 745 747 750 751 747 749 750 750 752 750 750 755 752 747 748 752 755 757 755 742 738 744 746 749 749 750 752 750 749 745 743 740 732 729 729 733 734 734 743 741 729 732 737 731 725 726 730 734 734 730 730 733 734 735 735 735 734 738 746
782 780 780 780 779 779 779 778 778 777 777 776 774 768 764 766 767 765 766 764 754 746 746 747 748 747 746 746 745 746 747 746 749 748 747 750 750 748 748 749 750 746 745 750 754 756 755 746 737 741 746 749 752 752 752 753 750 748 744 743 741 731 730 737 740 738 736 741 741 735 735 737 733 728 727 730 731 729 728 728 729 730 733 734 734 734 735 741
781 780 780 779 779 779 778 778 778 776 775 774 771 767 766 768 767 766 766 763 754 745 743 743 743 743 743 743 743 746 745 739 741 744 744 748 747 746 747 745 745 746 744 745 749 750 746 742 739 743 748 750 753 752 753 754 749 745 742 742 739 731 732 738 741 743 742 742 742 742 747 743 735 733 729 726 728 729 728 730 731 731 732 733 733 734 735 737
780 780 779 779 779 778 778 778 776 774 773 772 769 767 767 768 767 767 767 764 757 746 743 743 742 740 738 741 744 742 741 738 736 738 740 744 743 743 745 741 744 747 741 741 747 745 742 742 741 745 750 750 752 752 750 752 749 743 740 739 738 735 737 739 741 747 752 751 741 744 761 754 730 727 728 725 731 733 730 732 733 733 733 734 736 736 737 737
780 780 779 779 779 778 779 776 772 772 771 767 766 766 768 768 767 768 767 767 760 748 745 745 743 742 739 742 742 739 745 743 734 735 739 740 738 740 745 742 742 744 737 740 745 741 742 744 742 747 751 749 752 750 743 746 750 747 738 735 738 738 740 743 742 748 756 752 740 741 761 759 734 724 726 726 732 734 731 732 731 731 732 733 735 735 737 738
780 779 778 779 778 778 778 773 771 771 767 765 765 766 768 766 767 768 769 775 766 746 743 743 741 741 739 739 737 742 753 745 736 738 739 740 739 739 746 743 741 742 737 743 752 744 740 746 747 749 752 751 751 747 739 740 749 750 740 735 738 738 741 744 744 748 747 741 741 741 747 756 747 733 727 728 733 733 732 734 731 729 730 731 731 732 733 735
779 778 778 777 777 778 776 774 773 768 765 765 765 767 767 766 768 766 774 786 766 739 738 739 738 738 736 736 736 740 745 740 742 743 735 739 741 740 746 742 736 738 737 747 758 748 741 748 751 750 753 752 745 738 735 739 746 746 740 737 737 737 740 741 743 746 741 744 753 743 739 757 754 733 726 731 736 736 733 735 734 731 730 730 731 732 732 733
778 777 776 776 777 777 775 776 773 768 766 766 767 768 766 767 767 765 777 784 756 734 736 737 739 740 737 738 739 739 738 737 743 741 734 740 740 739 744 739 735 738 739 743 749 745 741 743 744 745 750 746 736 732 733 739 743 739 738 738 736 736 738 740 744 744 746 758 763 747 741 758 757 735 728 735 740 737 733 734 735 733 732 731 733 735 735 735
777 775 775 775 776 775 774 774 771 768 767 767 768 767 765 768 768 775 788 776 748 736 735 736 739 738 738 741 741 739 738 737 738 738 739 740 739 740 739 735 737 741 741 741 742 739 737 739 740 742 744 738 732 734 735 738 739 738 741 741 740 740 739 744 744 743 757 766 757 743 737 751 760 743 728 734 738 733 731 735 737 734 733 734 736 737 736 736
776 774 773 774 774 773 772 769 768 768 768 768 768 766 767 767 767 783 785 757 740 740 736 736 737 734 737 740 740 740 737 735 736 740 742 740 741 743 742 742 744 745 746 745 743 737 736 742 742 738 737 735 736 738 736 736 737 740 742 742 748 752 749 753 751 752 771 770 748 736 732 745 762 745 726 731 734 730 731 734 738 738 737 738 739 738 737 737
775 773 772 772 772 772 770 767 767 768 768 768 768 764 767 772 772 776 766 746 746 745 734 735 735 733 735 734 736 739 736 736 735 737 739 739 743 743 742 745 747 753 757 752 748 745 740 738 734 733 734 735 740 742 738 738 739 741 742 748 763 770 768 772 767 764 772 762 743 736 737 749 754 736 725 732 732 731 733 734 737 740 741 742 741 739 738 738
774 771 771 771 770 771 770 768 768 769 768 767 767 762 767 781 777 761 750 747 748 740 729 731 731 730 733 733 736 734 734 737 735 735 735 733 739 742 739 738 739 750 758 753 754 754 748 736 726 732 736 733 738 742 741 743 743 743 744 753 768 774 781 785 773 766 765 754 742 739 747 756 749 731 727 731 732 732 734 735 738 741 743 744 741 739 740 740
772 770 770 769 769 769 768 768 768 767 768 766 765 765 773 784 770 751 749 746 739 734 731 732 732 732 733 733 735 732 735 740 733 733 737 734 740 744 741 739 739 743 748 752 755 754 756 750 734 734 738 735 735 735 734 736 740 740 734 743 757 762 773 779 770 766 763 754 747 748 758 760 750 740 731 729 732 732 733 736 739 741 742 742 742 741 743 743
771 769 769 768 768 767 766 768 767 767 768 764 764 768 776 778 760 746 746 739 733 735 733 731 732 736 738 734 732 731 736 742 734 732 737 736 739 742 742 742 741 740 745 753 753 749 756 750 732 731 734 733 735 730 727 733 740 737 729 739 751 747 752 762 761 759 763 764 758 754 755 745 738 739 731 729 733 732 734 737 738 742 741 742 745 745 746 747
769 768 768 767 766 765 765 767 766 766 765 763 766 769 765 758 745 738 736 733 734 734 733 736 736 739 744 740 736 735 734 738 738 736 737 734 734 737 740 741 740 742 745 750 751 751 758 748 730 732 734 729 733 730 728 737 742 739 738 744 740 729 738 757 760 754 762 775 764 751 749 738 735 739 730 731 736 733 736 738 737 742 742 744 748 747 748 749
768 766 765 763 762 763 764 765 765 766 763 761 767 765 751 740 734 732 732 733 734 731 734 744 742 740 746 745 743 738 734 738 738 738 739 738 739 740 740 742 743 743 741 745 749 748 755 754 735 732 736 730 730 733 730 730 734 740 745 741 731 729 736 749 763 764 767 774 760 748 750 746 746 746 733 732 737 736 737 737 738 742 743 746 749 749 751 751
768 765 761 758 760 762 762 764 764 763 760 761 765 759 746 737 732 731 733 734 735 734 738 745 743 741 744 746 743 735 735 742 740 739 741 742 745 744 740 743 745 744 741 745 749 744 751 762 744 727 732 731 728 737 739 730 727 734 736 730 736 752 752 749 762 771 772 775 765 751 747 744 744 743 737 738 738 737 737 737 740 743 743 746 749 750 753 753
767 763 758 756 759 760 761 763 762 759 760 762 762 754 743 737 732 732 735 736 736 737 740 739 737 741 741 741 741 734 736 742 739 740 743 743 748 747 740 742 745 745 744 744 747 744 748 764 756 730 727 733 733 739 746 738 728 729 732 730 735 747 750 748 754 758 764 772 768 759 753 746 736 730 733 739 735 734 738 738 740 742 744 748 750 752 755 756
763 760 755 754 758 759 759 760 759 759 760 759 755 747 737 734 734 734 737 737 736 737 739 735 733 740 742 738 738 735 737 740 738 740 742 740 748 750 743 743 745 745 746 745 746 747 748 760 763 743 730 738 743 739 739 737 733 734 739 740 739 738 740 744 746 744 751 761 764 765 761 747 730 724 728 732 730 731 736 738 741 744 747 750 752 754 756 758
761 758 754 754 757 757 757 760 758 756 755 753 748 742 737 737 736 735 738 739 737 735 735 736 736 738 740 739 739 737 737 741 739 740 740 737 742 749 746 745 746 746 748 749 747 750 753 757 762 756 745 743 740 732 731 734 734 736 739 739 739 740 744 753 755 745 741 749 754 759 760 749 734 727 727 727 727 729 732 737 742 746 749 752 753 755 757 758
760 757 753 754 757 755 756 758 754 750 750 748 743 740 740 741 739 737 738 739 739 736 734 738 739 738 739 738 738 737 738 741 740 739 740 736 735 744 748 749 749 748 751 752 747 750 757 759 762 760 751 742 733 728 732 735 733 735 737 736 737 740 745 757 763 752 747 748 745 747 755 753 741 731 728 727 727 729 733 737 744 748 750 752 754 756 757 758
756 752 751 754 755 753 756 758 752 748 748 744 740 739 741 742 741 739 739 739 739 738 738 740 740 740 740 738 738 739 740 744 742 737 739 738 738 745 749 750 751 751 753 753 749 753 761 765 766 762 749 738 730 725 726 730 736 740 739 736 738 740 741 746 749 749 754 755 751 755 760 754 743 734 731 731 730 733 737 739 745 750 751 753 754 756 758 759
754 751 749 751 753 753 756 757 751 747 745 742 742 743 742 742 742 741 741 740 739 739 742 743 740 740 740 739 741 741 741 747 746 739 740 742 744 749 749 750 754 752 752 756 755 759 765 764 764 766 761 753 745 738 734 735 740 744 741 737 736 736 739 745 746 749 759 756 752 760 761 751 746 740 736 736 737 738 741 741 744 750 751 753 754 755 758 759
758 754 749 748 751 752 751 749 747 746 745 745 749 748 745 745 745 744 743 742 741 742 745 744 740 741 741 740 745 743 740 747 749 744 744 745 748 751 750 753 755 751 754 761 759 760 766 764 763 769 773 769 761 752 746 745 745 744 741 736 735 738 747 754 756 759 763 754 749 755 753 747 747 744 740 741 740 741 742 742 745 748 751 753 754 756 758 759
759 756 752 748 748 748 747 745 747 749 748 750 753 750 748 747 746 746 746 746 746 745 747 746 743 746 746 745 750 750 744 745 748 747 748 748 748 751 752 754 755 756 761 766 763 762 766 766 763 766 767 762 756 748 742 744 749 749 746 742 739 743 748 754 761 764 760 754 751 748 744 746 747 742 742 744 742 742 743 744 746 748 751 753 755 757 758 759
760 761 761 759 755 750 747 746 747 749 748 751 755 752 751 750 747 749 750 748 748 748 748 748 747 750 753 751 754 756 749 745 746 749 750 747 743 748 756 756 756 762 767 766 763 765 770 770 765 763 762 756 752 747 743 745 749 749 748 747 746 744 745 752 761 761 758 761 758 744 740 749 748 740 741 745 744 744 745 746 748 749 752 754 755 757 759 760
764 766 765 768 765 758 756 755 753 751 750 752 754 755 755 754 752 754 754 750 749 750 752 754 752 750 751 751 754 758 755 752 752 752 752 750 746 750 758 758 757 762 766 763 760 765 771 771 764 762 761 756 752 749 745 744 748 747 746 749 751 750 750 754 757 755 757 765 761 747 746 752 748 742 742 741 741 744 745 746 747 748 752 754 755 757 758 759
771 769 767 769 768 764 764 764 760 757 755 756 758 759 760 758 755 756 756 755 755 753 754 760 758 751 748 749 753 758 759 760 760 757 754 755 754 754 759 760 757 759 762 761 760 764 772 772 764 762 762 756 752 748 745 746 750 749 748 748 750 751 751 753 754 752 753 757 754 751 753 752 745 744 743 740 740 742 743 745 746 749 752 753 754 756 757 757
781 780 778 774 767 766 767 765 762 760 757 760 763 762 762 762 760 758 759 762 764 761 759 760 757 753 753 753 755 761 765 766 767 765 762 764 764 762 762 761 758 757 760 760 759 764 774 774 766 765 767 762 755 750 748 750 753 753 751 747 747 749 750 751 751 751 753 754 751 752 757 754 745 743 743 742 742 742 742 745 746 748 750 751 753 755 755 757
790 788 788 782 772 769 769 765 763 760 757 762 766 765 765 766 764 764 765 765 766 767 766 764 761 759 758 756 761 770 772 770 770 769 768 768 767 764 763 760 759 760 761 760 760 765 774 776 768 768 773 767 758 756 754 751 752 754 752 749 748 750 751 751 750 750 753 756 756 758 760 755 746 741 741 741 740 740 741 742 744 746 748 750 752 754 754 757
794 790 789 785 776 772 769 763 761 762 765 770 773 770 769 769 765 769 773 769 766 768 768 767 768 766 762 765 772 777 775 772 771 770 767 766 764 762 762 760 761 764 764 763 764 766 771 775 771 772 775 769 760 758 755 756 764 764 756 751 751 750 751 750 747 747 749 752 757 759 755 749 744 741 744 745 744 742 742 742 743 744 745 748 751 752 754 756